Location: La Fredeussais
(48.1780°N, 1.3980°W)
Time: 03:57:23
(UTC+00:00)

SL-24 R/B - RUBIN 2 - Pass Details

Date: 09 May 2021
Orbit: 582 x 1013 km, 64.6° (Epoch: 13 June)

Event Time Altitude Azimuth Distance (km) Brightness Sun altitude
Rises 23:00:20 0° 320° (NW) 3,433 8.5 -22.8°
Reaches altitude 10° 23:02:57 10° 320° (NW) 2,424 7.5 -22.9°
Maximum altitude 23:08:30 83° 234° (SW) 757 3.8 -23.1°
Enters shadow 23:09:19 64° 157° (SSE) 817 3.8 -23.2°
